| time (UTC) | temp F | wind direction | speed knots | gust knots | rain 1hr in | rain 24hr in | rain mn in | humidity % | barometer mb |
| 20260507161420 | 68 | 74 | 0.0 | 0.0 | 0.00 | 0.00 | 0.00 | 78 | 1017.3 |
| 20260507160918 | 68 | 109 | 0.0 | 0.0 | 0.00 | 0.00 | 0.00 | 78 | 1017.3 |
| 20260507160414 | 67 | 215 | 0.0 | 0.0 | 0.00 | 0.00 | 0.00 | 81 | 1017.3 |
| 20260507155910 | 65 | 221 | 0.0 | 0.0 | 0.00 | 0.00 | 0.00 | 82 | 1017.3 |
| 20260507155406 | 65 | 282 | 0.0 | 0.0 | 0.00 | 0.00 | 0.00 | 83 | 1017.3 |
| 20260507154903 | 64 | 228 | 0.0 | 0.0 | 0.00 | 0.00 | 0.00 | 85 | 1017.6 |
| 20260507154400 | 64 | 302 | 0.0 | 0.0 | 0.00 | 0.00 | 0.00 | 86 | 1017.3 |
| 20260507153857 | 64 | 304 | 0.0 | 0.0 | 0.00 | 0.00 | 0.00 | 86 | 1017.3 |
| 20260507153353 | 64 | 283 | 0.0 | 0.0 | 0.00 | 0.00 | 0.00 | 87 | 1017.6 |
| 20260507152850 | 63 | 245 | 0.0 | 0.0 | 0.00 | 0.00 | 0.00 | 88 | 1017.3 |
| 20260507152347 | 63 | 266 | 0.0 | 0.0 | 0.00 | 0.00 | 0.00 | 88 | 1017.3 |
| 20260507151843 | 63 | 250 | 0.0 | 0.0 | 0.00 | 0.00 | 0.00 | 88 | 1017.6 |
| 20260507151339 | 63 | 289 | 0.0 | 0.0 | 0.00 | 0.00 | 0.00 | 89 | 1017.6 |
| 20260507150836 | 62 | 284 | 0.0 | 0.0 | 0.00 | 0.00 | 0.00 | 89 | 1017.6 |
| 20260507150333 | 62 | 258 | 0.0 | 0.0 | 0.00 | 0.00 | 0.00 | 91 | 1017.6 |
| 20260507145828 | 62 | 235 | 0.0 | 0.0 | 0.00 | 0.00 | 0.00 | 90 | 1017.3 |
| 20260507145325 | 62 | 266 | 0.0 | 0.0 | 0.00 | 0.00 | 0.00 | 91 | 1017.6 |
| 20260507144822 | 61 | 293 | 0.0 | 0.0 | 0.00 | 0.00 | 0.00 | 92 | 1017.3 |
| 20260507144320 | 62 | 276 | 0.0 | 0.0 | 0.00 | 0.00 | 0.00 | 91 | 1017.6 |
| 20260507143816 | 61 | 265 | 0.0 | 0.0 | 0.00 | 0.00 | 0.00 | 92 | 1017.3 |
| 20260507143313 | 61 | 244 | 0.0 | 0.0 | 0.00 | 0.00 | 0.00 | 92 | 1017.3 |
| 20260507142809 | 60 | 245 | 0.0 | 0.0 | 0.00 | 0.00 | 0.00 | 93 | 1017.3 |
| 20260507142307 | 60 | 246 | 0.0 | 0.0 | 0.00 | 0.00 | 0.00 | 94 | 1017.3 |
| 20260507141803 | 60 | 297 | 0.0 | 0.0 | 0.00 | 0.00 | 0.00 | 94 | 1016.9 |
| 20260507141259 | 60 | 306 | 0.0 | 0.0 | 0.00 | 0.00 | 0.00 | 95 | 1016.9 |
| 20260507140755 | 59 | 331 | 0.0 | 0.0 | 0.00 | 0.00 | 0.00 | 95 | 1017.3 |
| 20260507140247 | 59 | 334 | 0.0 | 0.0 | 0.00 | 0.00 | 0.00 | 96 | 1017.3 |
| 20260507135744 | 58 | 316 | 0.0 | 0.0 | 0.00 | 0.00 | 0.00 | 96 | 1017.3 |
| 20260507135242 | 58 | 328 | 0.0 | 0.0 | 0.00 | 0.00 | 0.00 | 97 | 1017.3 |
| 20260507134738 | 57 | 324 | 0.0 | 0.0 | 0.00 | 0.00 | 0.00 | 97 | 1016.9 |
| 20260507134234 | 56 | 318 | 0.0 | 0.0 | 0.00 | 0.00 | 0.00 | 97 | 1016.9 |
| 20260507133730 | 56 | 315 | 0.0 | 0.0 | 0.00 | 0.00 | 0.00 | 98 | 1016.9 |
| 20260507133227 | 55 | 315 | 0.0 | 0.0 | 0.00 | 0.00 | 0.00 | 98 | 1016.6 |
| 20260507132725 | 54 | 314 | 0.0 | 0.0 | 0.00 | 0.00 | 0.00 | 98 | 1016.6 |
| 20260507132222 | 54 | 311 | 0.0 | 0.0 | 0.00 | 0.00 | 0.00 | 98 | 1016.9 |
| 20260507131718 | 54 | 311 | 0.0 | 0.0 | 0.00 | 0.00 | 0.00 | 98 | 1016.9 |
| 20260507131216 | 54 | 310 | 0.0 | 0.0 | 0.00 | 0.00 | 0.00 | 98 | 1016.9 |
| 20260507130712 | 54 | 310 | 0.0 | 0.0 | 0.00 | 0.00 | 0.00 | 98 | 1016.9 |
| 20260507130210 | 55 | 310 | 0.0 | 0.0 | 0.00 | 0.00 | 0.00 | 98 | 1016.6 |
| 20260507125708 | 55 | 310 | 0.0 | 0.0 | 0.00 | 0.00 | 0.00 | 98 | 1016.6 |
| 20260507125206 | 55 | 310 | 0.0 | 0.0 | 0.00 | 0.00 | 0.00 | 98 | 1016.6 |
| 20260507124701 | 54 | 309 | 0.0 | 0.0 | 0.00 | 0.00 | 0.00 | 98 | 1016.6 |
| 20260507124159 | 54 | 309 | 0.0 | 0.0 | 0.00 | 0.00 | 0.00 | 98 | 1016.6 |
| 20260507123657 | 55 | 309 | 0.0 | 0.0 | 0.00 | 0.00 | 0.00 | 98 | 1016.6 |
| 20260507123154 | 55 | 309 | 0.0 | 0.0 | 0.00 | 0.00 | 0.00 | 98 | 1016.6 |
| 20260507122649 | 55 | 309 | 0.0 | 0.0 | 0.00 | 0.00 | 0.00 | 98 | 1016.6 |
| 20260507122145 | 55 | 309 | 0.0 | 0.0 | 0.00 | 0.00 | 0.00 | 98 | 1016.6 |
| 20260507121642 | 55 | 309 | 0.0 | 0.0 | 0.00 | 0.00 | 0.00 | 98 | 1016.6 |
| 20260507121137 | 54 | 308 | 0.0 | 0.0 | 0.00 | 0.00 | 0.00 | 98 | 1016.6 |
| 20260507120634 | 55 | 307 | 0.0 | 0.0 | 0.00 | 0.00 | 0.00 | 98 | 1016.6 |
| 20260507120131 | 55 | 307 | 0.0 | 0.0 | 0.00 | 0.00 | 0.00 | 98 | 1016.9 |
| 20260507115627 | 55 | 307 | 0.0 | 0.0 | 0.00 | 0.00 | 0.00 | 98 | 1016.6 |
| 20260507115123 | 55 | 306 | 0.0 | 0.0 | 0.00 | 0.00 | 0.00 | 98 | 1016.6 |
| 20260507114619 | 55 | 306 | 0.0 | 0.0 | 0.00 | 0.00 | 0.00 | 98 | 1016.9 |
| 20260507114116 | 55 | 305 | 0.0 | 0.0 | 0.00 | 0.00 | 0.00 | 98 | 1016.6 |
| 20260507113614 | 55 | 305 | 0.0 | 0.0 | 0.00 | 0.00 | 0.00 | 99 | 1016.6 |
| 20260507113110 | 55 | 304 | 0.0 | 0.0 | 0.00 | 0.00 | 0.00 | 98 | 1016.6 |
| 20260507112608 | 55 | 304 | 0.0 | 0.0 | 0.00 | 0.00 | 0.00 | 98 | 1016.6 |
| 20260507112104 | 55 | 303 | 0.0 | 0.0 | 0.00 | 0.00 | 0.00 | 99 | 1016.6 |
| 20260507111602 | 55 | 302 | 0.0 | 0.0 | 0.00 | 0.00 | 0.00 | 98 | 1016.6 |
| 20260507111058 | 56 | 301 | 0.0 | 0.0 | 0.00 | 0.00 | 0.00 | 98 | 1016.9 |
| 20260507110555 | 56 | 300 | 0.0 | 0.0 | 0.00 | 0.00 | 0.00 | 98 | 1016.9 |
| 20260507110051 | 55 | 300 | 0.0 | 0.0 | 0.00 | 0.00 | 0.00 | 98 | 1016.6 |
| 20260507105548 | 55 | 299 | 0.0 | 0.0 | 0.00 | 0.00 | 0.00 | 98 | 1016.9 |
| 20260507105044 | 56 | 298 | 0.0 | 0.0 | 0.00 | 0.00 | 0.00 | 98 | 1016.6 |
| 20260507104542 | 56 | 297 | 0.0 | 0.0 | 0.00 | 0.00 | 0.00 | 98 | 1016.9 |
| 20260507104038 | 56 | 295 | 0.0 | 0.0 | 0.00 | 0.00 | 0.00 | 98 | 1016.9 |
| 20260507103534 | 56 | 295 | 0.0 | 0.0 | 0.00 | 0.00 | 0.00 | 98 | 1017.3 |
| 20260507103031 | 56 | 295 | 0.0 | 0.0 | 0.00 | 0.00 | 0.00 | 98 | 1016.9 |
| 20260507102528 | 56 | 295 | 0.0 | 0.0 | 0.00 | 0.00 | 0.00 | 98 | 1016.9 |
| 20260507102024 | 56 | 294 | 0.0 | 0.0 | 0.00 | 0.00 | 0.00 | 98 | 1017.3 |
| 20260507101519 | 56 | 294 | 0.0 | 0.0 | 0.00 | 0.00 | 0.00 | 98 | 1017.3 |
| 20260507101016 | 57 | 294 | 0.0 | 0.0 | 0.00 | 0.00 | 0.00 | 98 | 1016.9 |
| 20260507100514 | 57 | 294 | 0.0 | 0.0 | 0.00 | 0.00 | 0.00 | 98 | 1016.9 |
| 20260507100011 | 57 | 294 | 0.0 | 0.0 | 0.00 | 0.00 | 0.00 | 98 | 1017.3 |
| 20260507095509 | 57 | 293 | 0.0 | 0.0 | 0.00 | 0.00 | 0.00 | 98 | 1016.9 |
| 20260507095005 | 58 | 293 | 0.0 | 0.0 | 0.00 | 0.00 | 0.00 | 98 | 1016.9 |
| 20260507094502 | 58 | 293 | 0.0 | 0.0 | 0.00 | 0.00 | 0.00 | 98 | 1017.3 |
| 20260507093959 | 58 | 293 | 0.0 | 0.0 | 0.00 | 0.00 | 0.00 | 97 | 1017.3 |
| 20260507093456 | 58 | 293 | 0.0 | 0.0 | 0.00 | 0.00 | 0.00 | 97 | 1017.3 |
| 20260507092955 | 58 | 293 | 0.0 | 0.0 | 0.00 | 0.00 | 0.00 | 97 | 1017.3 |
| 20260507092451 | 58 | 293 | 0.0 | 0.0 | 0.00 | 0.00 | 0.00 | 97 | 1017.3 |
| 20260507091947 | 58 | 292 | 0.0 | 0.0 | 0.00 | 0.00 | 0.00 | 97 | 1017.3 |
| 20260507091444 | 58 | 292 | 0.0 | 0.0 | 0.00 | 0.00 | 0.00 | 97 | 1017.3 |
| 20260507090940 | 58 | 292 | 0.0 | 0.0 | 0.00 | 0.00 | 0.00 | 97 | 1017.3 |
| 20260507090436 | 59 | 290 | 0.0 | 0.0 | 0.00 | 0.00 | 0.00 | 97 | 1017.3 |
| 20260507085933 | 59 | 289 | 0.0 | 0.0 | 0.00 | 0.00 | 0.00 | 97 | 1017.6 |
| 20260507085430 | 59 | 287 | 0.0 | 0.0 | 0.00 | 0.00 | 0.00 | 97 | 1017.6 |
| 20260507084927 | 59 | 280 | 0.0 | 0.0 | 0.00 | 0.00 | 0.00 | 96 | 1017.6 |
| 20260507084424 | 59 | 271 | 0.0 | 0.0 | 0.00 | 0.00 | 0.00 | 96 | 1017.6 |
| 20260507083921 | 59 | 257 | 0.0 | 0.0 | 0.00 | 0.00 | 0.00 | 96 | 1017.6 |
| 20260507083417 | 59 | 252 | 0.0 | 0.0 | 0.00 | 0.00 | 0.00 | 96 | 1017.6 |
| 20260507082914 | 59 | 257 | 0.0 | 0.0 | 0.00 | 0.00 | 0.00 | 95 | 1017.6 |
| 20260507082409 | 59 | 255 | 0.0 | 0.0 | 0.00 | 0.00 | 0.00 | 95 | 1017.9 |
| 20260507081907 | 59 | 254 | 0.0 | 0.0 | 0.00 | 0.00 | 0.00 | 95 | 1017.9 |
| 20260507081403 | 59 | 252 | 0.0 | 0.0 | 0.00 | 0.00 | 0.00 | 94 | 1017.9 |
| 20260507080859 | 59 | 195 | 0.0 | 0.0 | 0.00 | 0.00 | 0.00 | 94 | 1017.9 |
| 20260507080356 | 59 | 233 | 0.0 | 0.0 | 0.00 | 0.00 | 0.00 | 94 | 1017.9 |
| 20260507075851 | 59 | 212 | 0.0 | 0.0 | 0.00 | 0.00 | 0.00 | 93 | 1017.6 |
| 20260507075347 | 59 | 244 | 0.0 | 0.0 | 0.00 | 0.00 | 0.00 | 93 | 1017.9 |
| 20260507074844 | 59 | 246 | 0.0 | 0.0 | 0.00 | 0.00 | 0.00 | 93 | 1017.9 |
| 20260507074341 | 59 | 208 | 0.0 | 0.0 | 0.00 | 0.00 | 0.00 | 93 | 1017.9 |
| 20260507073838 | 59 | 234 | 0.0 | 0.0 | 0.00 | 0.00 | 0.00 | 93 | 1017.9 |
| 20260507073335 | 59 | 177 | 0.0 | 0.0 | 0.00 | 0.00 | 0.00 | 93 | 1018.3 |
| 20260507072832 | 59 | 190 | 0.0 | 0.0 | 0.00 | 0.00 | 0.00 | 93 | 1018.3 |
| 20260507072330 | 59 | 247 | 0.0 | 0.0 | 0.00 | 0.00 | 0.00 | 94 | 1018.3 |
| 20260507071827 | 59 | 205 | 0.0 | 0.0 | 0.00 | 0.00 | 0.00 | 95 | 1018.3 |
| 20260507071324 | 59 | 216 | 0.0 | 0.0 | 0.00 | 0.00 | 0.00 | 95 | 1018.3 |
| 20260507070820 | 59 | 255 | 0.0 | 0.0 | 0.00 | 0.00 | 0.00 | 96 | 1018.3 |
| 20260507070318 | 60 | 236 | 0.0 | 0.0 | 0.00 | 0.00 | 0.00 | 96 | 1017.9 |
| 20260507065814 | 60 | 236 | 0.0 | 0.0 | 0.00 | 0.00 | 0.00 | 96 | 1018.3 |
| 20260507065311 | 60 | 248 | 0.0 | 0.0 | 0.00 | 0.00 | 0.00 | 96 | 1017.9 |
| 20260507064808 | 60 | 243 | 0.0 | 0.0 | 0.00 | 0.00 | 0.00 | 96 | 1017.9 |
| 20260507064307 | 60 | 267 | 0.0 | 0.0 | 0.00 | 0.00 | 0.00 | 96 | 1018.3 |
| 20260507063804 | 60 | 247 | 0.0 | 0.0 | 0.00 | 0.00 | 0.00 | 96 | 1018.3 |
| 20260507063301 | 60 | 242 | 0.0 | 0.0 | 0.00 | 0.00 | 0.00 | 96 | 1018.3 |
| 20260507062757 | 60 | 231 | 0.0 | 0.0 | 0.00 | 0.00 | 0.00 | 96 | 1018.3 |
| 20260507062255 | 60 | 240 | 0.0 | 0.0 | 0.00 | 0.00 | 0.00 | 96 | 1018.3 |
| 20260507061753 | 60 | 263 | 0.0 | 0.0 | 0.00 | 0.00 | 0.00 | 96 | 1018.3 |
| 20260507061250 | 60 | 258 | 0.0 | 0.0 | 0.00 | 0.00 | 0.00 | 96 | 1018.3 |
| 20260507060748 | 60 | 234 | 0.0 | 0.0 | 0.00 | 0.00 | 0.00 | 96 | 1018.3 |
| 20260507060244 | 60 | 260 | 0.0 | 0.0 | 0.00 | 0.00 | 0.00 | 96 | 1018.3 |
| 20260507055741 | 60 | 232 | 0.0 | 0.0 | 0.00 | 0.00 | 0.00 | 96 | 1018.3 |
| 20260507055236 | 60 | 250 | 0.0 | 0.0 | 0.00 | 0.00 | 0.00 | 95 | 1018.3 |
| 20260507054733 | 60 | 216 | 0.0 | 0.0 | 0.00 | 0.00 | 0.00 | 95 | 1018.3 |
| 20260507054230 | 60 | 253 | 0.0 | 0.0 | 0.00 | 0.00 | 0.00 | 95 | 1018.3 |
| 20260507053727 | 60 | 221 | 4.3 | 7.0 | 0.00 | 0.00 | 0.00 | 95 | 1018.3 |
| 20260507053225 | 60 | 244 | 0.0 | 0.0 | 0.00 | 0.00 | 0.00 | 94 | 1018.3 |
| 20260507052724 | 60 | 263 | 0.0 | 0.9 | 0.00 | 0.00 | 0.00 | 94 | 1018.3 |
| 20260507052219 | 60 | 236 | 0.0 | 0.0 | 0.00 | 0.00 | 0.00 | 93 | 1018.3 |
| 20260507051718 | 60 | 213 | 0.0 | 0.0 | 0.00 | 0.00 | 0.00 | 93 | 1018.3 |
| 20260507051214 | 60 | 184 | 0.0 | 0.0 | 0.00 | 0.00 | 0.00 | 93 | 1018.3 |
| 20260507050711 | 60 | 196 | 0.0 | 0.0 | 0.00 | 0.00 | 0.00 | 92 | 1018.3 |
| 20260507050208 | 60 | 238 | 0.0 | 0.0 | 0.00 | 0.00 | 0.00 | 92 | 1018.3 |
| 20260507045705 | 60 | 243 | 0.0 | 0.0 | 0.00 | 0.00 | 0.00 | 93 | 1018.3 |
| 20260507045201 | 60 | 138 | 0.0 | 0.0 | 0.00 | 0.00 | 0.00 | 93 | 1017.9 |
| 20260507044658 | 60 | 149 | 0.0 | 0.0 | 0.00 | 0.00 | 0.00 | 93 | 1018.3 |
| 20260507044154 | 60 | 229 | 0.0 | 0.0 | 0.00 | 0.00 | 0.00 | 93 | 1018.3 |
| 20260507043651 | 60 | 187 | 0.0 | 0.0 | 0.00 | 0.00 | 0.00 | 93 | 1018.3 |
| 20260507043148 | 60 | 160 | 0.0 | 0.0 | 0.00 | 0.00 | 0.00 | 93 | 1018.3 |
| 20260507042644 | 61 | 248 | 0.0 | 0.0 | 0.00 | 0.00 | 0.00 | 93 | 1018.3 |
| 20260507042139 | 61 | 223 | 0.0 | 0.0 | 0.00 | 0.00 | 0.00 | 93 | 1018.3 |
| 20260507041636 | 61 | 233 | 0.0 | 0.0 | 0.00 | 0.00 | 0.00 | 93 | 1017.9 |
| 20260507041127 | 61 | 178 | 0.0 | 0.0 | 0.00 | 0.00 | 0.00 | 93 | 1018.3 |
| 20260507040624 | 61 | 160 | 0.0 | 0.0 | 0.00 | 0.00 | 0.00 | 92 | 1017.9 |
| 20260507040121 | 61 | 272 | 0.0 | 0.0 | 0.00 | 0.00 | 0.00 | 92 | 1017.9 |
| 20260507035616 | 61 | 261 | 0.0 | 0.0 | 0.00 | 0.00 | 0.00 | 92 | 1017.9 |
| 20260507035113 | 61 | 233 | 0.0 | 0.0 | 0.00 | 0.00 | 0.00 | 92 | 1017.6 |
| 20260507034610 | 61 | 235 | 0.0 | 0.0 | 0.00 | 0.00 | 0.00 | 91 | 1017.6 |
| 20260507034107 | 61 | 202 | 0.0 | 0.0 | 0.00 | 0.00 | 0.00 | 92 | 1017.6 |
| 20260507033606 | 61 | 246 | 4.3 | 5.2 | 0.00 | 0.00 | 0.00 | 92 | 1017.6 |
| 20260507033102 | 61 | 264 | 6.1 | 7.0 | 0.00 | 0.00 | 0.00 | 91 | 1017.6 |
| 20260507032600 | 61 | 218 | 0.0 | 0.0 | 0.00 | 0.00 | 0.00 | 91 | 1017.6 |
| 20260507032056 | 61 | 253 | 0.0 | 0.0 | 0.00 | 0.00 | 0.00 | 92 | 1017.6 |
| 20260507031552 | 61 | 223 | 0.0 | 0.9 | 0.00 | 0.00 | 0.00 | 92 | 1017.6 |
| 20260507031049 | 61 | 242 | 0.0 | 0.0 | 0.00 | 0.00 | 0.00 | 92 | 1017.3 |
| 20260507030546 | 61 | 179 | 0.0 | 0.0 | 0.00 | 0.00 | 0.00 | 92 | 1017.3 |
| 20260507030044 | 61 | 209 | 0.0 | 0.0 | 0.00 | 0.00 | 0.00 | 91 | 1017.3 |
| 20260507025541 | 62 | 215 | 0.0 | 0.0 | 0.00 | 0.00 | 0.00 | 91 | 1017.3 |
| 20260507025038 | 62 | 218 | 4.3 | 6.1 | 0.00 | 0.00 | 0.00 | 91 | 1017.3 |
| 20260507024536 | 62 | 230 | 3.5 | 6.1 | 0.00 | 0.00 | 0.00 | 90 | 1017.3 |
| 20260507024032 | 62 | 269 | 0.0 | 0.0 | 0.00 | 0.00 | 0.00 | 89 | 1017.3 |
| 20260507023528 | 62 | 234 | 4.3 | 6.1 | 0.00 | 0.00 | 0.00 | 89 | 1016.9 |
| 20260507023026 | 62 | 252 | 6.1 | 8.7 | 0.00 | 0.00 | 0.00 | 87 | 1017.3 |
| 20260507022522 | 63 | 234 | 5.2 | 7.8 | 0.00 | 0.00 | 0.00 | 86 | 1017.3 |
| 20260507022012 | 63 | 231 | 0.0 | 0.0 | 0.00 | 0.00 | 0.00 | 85 | 1016.9 |
| 20260507021508 | 63 | 240 | 0.0 | 0.0 | 0.00 | 0.00 | 0.00 | 84 | 1016.9 |
| 20260507021005 | 63 | 258 | 0.0 | 0.0 | 0.00 | 0.00 | 0.00 | 85 | 1016.9 |
| 20260507020503 | 63 | 273 | 4.3 | 6.1 | 0.00 | 0.00 | 0.00 | 86 | 1016.9 |
| 20260507015959 | 63 | 252 | 0.0 | 0.0 | 0.00 | 0.00 | 0.00 | 87 | 1016.9 |
| 20260507015458 | 64 | 255 | 6.1 | 7.0 | 0.00 | 0.00 | 0.00 | 86 | 1016.9 |
| 20260507014955 | 64 | 244 | 3.5 | 5.2 | 0.00 | 0.00 | 0.00 | 85 | 1016.9 |
| 20260507014451 | 64 | 216 | 6.1 | 7.8 | 0.00 | 0.00 | 0.00 | 85 | 1016.9 |
| 20260507013947 | 64 | 217 | 1.7 | 4.3 | 0.00 | 0.00 | 0.00 | 85 | 1016.6 |
| 20260507013443 | 65 | 175 | 0.0 | 0.9 | 0.00 | 0.00 | 0.00 | 83 | 1016.6 |
| 20260507012941 | 64 | 259 | 4.3 | 7.0 | 0.00 | 0.00 | 0.00 | 84 | 1016.9 |
| 20260507012437 | 65 | 265 | 6.1 | 9.6 | 0.00 | 0.00 | 0.00 | 84 | 1016.6 |
| 20260507011934 | 65 | 244 | 5.2 | 7.8 | 0.00 | 0.00 | 0.00 | 82 | 1016.6 |
| 20260507011432 | 65 | 227 | 7.0 | 8.7 | 0.00 | 0.00 | 0.00 | 82 | 1016.6 |
| 20260507010931 | 64 | 260 | 6.1 | 7.8 | 0.00 | 0.00 | 0.00 | 82 | 1016.6 |
| 20260507010427 | 65 | 232 | 4.3 | 6.1 | 0.00 | 0.00 | 0.00 | 83 | 1016.6 |
| 20260507005924 | 65 | 227 | 4.3 | 5.2 | 0.00 | 0.00 | 0.00 | 83 | 1016.6 |
| 20260507005421 | 65 | 261 | 7.8 | 8.7 | 0.00 | 0.00 | 0.00 | 84 | 1016.6 |
| 20260507004918 | 65 | 236 | 6.1 | 7.0 | 0.00 | 0.00 | 0.00 | 83 | 1016.6 |
| 20260507004414 | 66 | 229 | 6.1 | 7.0 | 0.00 | 0.00 | 0.00 | 82 | 1016.6 |
| 20260507003912 | 65 | 184 | 3.5 | 6.1 | 0.00 | 0.00 | 0.00 | 83 | 1016.6 |
| 20260507003407 | 66 | 238 | 7.8 | 11.3 | 0.00 | 0.00 | 0.00 | 82 | 1016.6 |
| 20260507002903 | 66 | 238 | 10.4 | 12.2 | 0.00 | 0.00 | 0.00 | 82 | 1016.6 |
| 20260507002359 | 65 | 267 | 6.1 | 8.7 | 0.00 | 0.00 | 0.00 | 82 | 1016.6 |
| 20260507001856 | 66 | 303 | 1.7 | 4.3 | 0.00 | 0.00 | 0.00 | 82 | 1016.6 |
| 20260507001353 | 66 | 220 | 6.1 | 8.7 | 0.00 | 0.00 | 0.00 | 82 | 1016.6 |
| 20260507000850 | 66 | 236 | 0.9 | 1.7 | 0.00 | 0.00 | 0.00 | 80 | 1016.9 |
| 20260507000345 | 66 | 221 | 5.2 | 8.7 | 0.00 | 0.00 | 0.00 | 80 | 1016.6 |
| 20260506235841 | 66 | 237 | 7.8 | 13.0 | 0.00 | 0.00 | 0.00 | 80 | 1016.6 |
| 20260506235338 | 66 | 243 | 5.2 | 7.0 | 0.00 | 0.00 | 0.00 | 81 | 1016.9 |
| 20260506234834 | 66 | 234 | 7.8 | 12.2 | 0.00 | 0.00 | 0.00 | 82 | 1016.9 |
| 20260506234332 | 66 | 199 | 8.7 | 9.6 | 0.00 | 0.00 | 0.00 | 81 | 1016.9 |
| 20260506233830 | 67 | 162 | 5.2 | 7.8 | 0.00 | 0.00 | 0.00 | 79 | 1016.6 |
| 20260506233325 | 67 | 269 | 9.6 | 11.3 | 0.00 | 0.00 | 0.00 | 76 | 1016.9 |
| 20260506232822 | 68 | 261 | 10.4 | 13.0 | 0.00 | 0.00 | 0.00 | 74 | 1016.6 |
| 20260506232318 | 68 | 239 | 4.3 | 6.1 | 0.00 | 0.00 | 0.00 | 74 | 1016.9 |
| 20260506231815 | 68 | 251 | 6.1 | 7.8 | 0.00 | 0.00 | 0.00 | 74 | 1016.6 |
| 20260506231313 | 67 | 224 | 0.0 | 0.0 | 0.00 | 0.00 | 0.00 | 74 | 1016.9 |
| 20260506230810 | 68 | 237 | 8.7 | 11.3 | 0.00 | 0.00 | 0.00 | 71 | 1016.6 |
| 20260506230306 | 68 | 175 | 6.1 | 7.8 | 0.00 | 0.00 | 0.00 | 71 | 1016.9 |
| 20260506225803 | 68 | 167 | 4.3 | 7.0 | 0.00 | 0.00 | 0.00 | 73 | 1016.9 |
| 20260506225300 | 68 | 211 | 7.0 | 11.3 | 0.00 | 0.00 | 0.00 | 73 | 1017.3 |
| 20260506224756 | 68 | 242 | 8.7 | 11.3 | 0.00 | 0.00 | 0.00 | 74 | 1016.9 |
| 20260506224254 | 68 | 220 | 2.6 | 4.3 | 0.00 | 0.00 | 0.00 | 74 | 1017.3 |
| 20260506223750 | 68 | 246 | 7.8 | 11.3 | 0.00 | 0.00 | 0.00 | 72 | 1017.3 |
| 20260506223246 | 68 | 240 | 4.3 | 7.0 | 0.00 | 0.00 | 0.00 | 73 | 1017.3 |
| 20260506222743 | 68 | 195 | 7.0 | 8.7 | 0.00 | 0.00 | 0.00 | 74 | 1017.3 |
| 20260506222238 | 68 | 274 | 11.3 | 13.9 | 0.00 | 0.00 | 0.00 | 74 | 1017.3 |
| 20260506221731 | 68 | 246 | 10.4 | 13.9 | 0.00 | 0.00 | 0.00 | 75 | 1017.3 |
| 20260506221228 | 69 | 242 | 9.6 | 11.3 | 0.00 | 0.00 | 0.00 | 74 | 1017.3 |
| 20260506220725 | 68 | 237 | 7.0 | 8.7 | 0.00 | 0.00 | 0.00 | 74 | 1017.6 |
| 20260506220220 | 68 | 250 | 7.8 | 9.6 | 0.00 | 0.00 | 0.00 | 74 | 1017.3 |
| 20260506215717 | 69 | 283 | 9.6 | 12.2 | 0.00 | 0.00 | 0.00 | 73 | 1017.6 |
| 20260506215212 | 69 | 178 | 5.2 | 7.0 | 0.00 | 0.00 | 0.00 | 71 | 1017.3 |
| 20260506214709 | 68 | 273 | 6.1 | 7.0 | 0.00 | 0.00 | 0.00 | 73 | 1017.6 |
| 20260506214207 | 68 | 252 | 8.7 | 9.6 | 0.00 | 0.00 | 0.00 | 75 | 1017.9 |
| 20260506213705 | 69 | 255 | 9.6 | 11.3 | 0.00 | 0.00 | 0.00 | 72 | 1017.6 |
| 20260506213202 | 69 | 242 | 8.7 | 11.3 | 0.00 | 0.00 | 0.00 | 73 | 1017.9 |
| 20260506212659 | 69 | 269 | 4.3 | 7.8 | 0.00 | 0.00 | 0.00 | 72 | 1017.6 |
| 20260506212154 | 69 | 268 | 6.1 | 9.6 | 0.00 | 0.00 | 0.00 | 74 | 1017.6 |
| 20260506211650 | 68 | 230 | 6.1 | 7.0 | 0.00 | 0.00 | 0.00 | 76 | 1017.9 |
| 20260506211147 | 68 | 267 | 7.8 | 9.6 | 0.00 | 0.00 | 0.00 | 76 | 1017.6 |
| 20260506210644 | 69 | 236 | 8.7 | 9.6 | 0.00 | 0.00 | 0.00 | 73 | 1017.9 |
| 20260506210140 | 68 | 253 | 10.4 | 12.2 | 0.00 | 0.00 | 0.00 | 76 | 1017.9 |
| 20260506205638 | 68 | 248 | 9.6 | 11.3 | 0.00 | 0.00 | 0.00 | 74 | 1017.9 |
| 20260506205132 | 68 | 241 | 10.4 | 12.2 | 0.00 | 0.00 | 0.00 | 74 | 1017.9 |
| 20260506204630 | 69 | 307 | 8.7 | 11.3 | 0.00 | 0.00 | 0.00 | 71 | 1017.9 |
| 20260506204127 | 70 | 237 | 7.8 | 11.3 | 0.00 | 0.00 | 0.00 | 69 | 1018.3 |
| 20260506203625 | 70 | 294 | 9.6 | 11.3 | 0.00 | 0.00 | 0.00 | 70 | 1018.3 |
| 20260506203122 | 70 | 260 | 7.8 | 9.6 | 0.00 | 0.00 | 0.00 | 67 | 1017.9 |
| 20260506202620 | 70 | 157 | 0.0 | 0.0 | 0.00 | 0.00 | 0.00 | 65 | 1018.3 |
| 20260506202115 | 70 | 234 | 9.6 | 11.3 | 0.00 | 0.00 | 0.00 | 66 | 1018.3 |
| 20260506201613 | 71 | 196 | 6.1 | 7.8 | 0.00 | 0.00 | 0.00 | 64 | 1018.3 |
| 20260506201109 | 71 | 216 | 2.6 | 6.1 | 0.00 | 0.00 | 0.00 | 64 | 1018.3 |
| 20260506200606 | 70 | 215 | 0.0 | 0.0 | 0.00 | 0.00 | 0.00 | 68 | 1018.3 |
| 20260506195559 | 71 | 148 | 0.0 | 0.0 | 0.00 | 0.00 | 0.00 | 68 | 1018.6 |
| 20260506195056 | 71 | 190 | 5.2 | 6.1 | 0.00 | 0.00 | 0.00 | 68 | 1018.6 |
| 20260506194554 | 70 | 266 | 6.1 | 7.8 | 0.00 | 0.00 | 0.00 | 70 | 1018.3 |
| 20260506194049 | 70 | 267 | 9.6 | 12.2 | 0.00 | 0.00 | 0.00 | 70 | 1018.3 |
| 20260506193547 | 70 | 252 | 4.3 | 6.1 | 0.00 | 0.00 | 0.00 | 69 | 1018.6 |
| 20260506193044 | 70 | 235 | 1.7 | 7.0 | 0.00 | 0.00 | 0.00 | 69 | 1018.3 |
| 20260506192541 | 69 | 211 | 6.1 | 7.0 | 0.00 | 0.00 | 0.00 | 69 | 1018.6 |
| 20260506192037 | 69 | 229 | 7.0 | 9.6 | 0.00 | 0.00 | 0.00 | 72 | 1018.6 |
| 20260506191534 | 69 | 279 | 4.3 | 5.2 | 0.00 | 0.00 | 0.00 | 71 | 1019.0 |
| 20260506191029 | 69 | 259 | 6.1 | 8.7 | 0.00 | 0.00 | 0.00 | 71 | 1019.0 |
| 20260506190527 | 70 | 257 | 5.2 | 7.0 | 0.00 | 0.00 | 0.00 | 70 | 1019.0 |
| 20260506190024 | 70 | 185 | 3.5 | 4.3 | 0.00 | 0.00 | 0.00 | 68 | 1018.6 |
| 20260506185521 | 69 | 237 | 4.3 | 6.1 | 0.00 | 0.00 | 0.00 | 68 | 1019.0 |
| 20260506185017 | 68 | 244 | 0.0 | 0.0 | 0.00 | 0.00 | 0.00 | 70 | 1019.0 |
| 20260506184515 | 69 | 198 | 4.3 | 6.1 | 0.00 | 0.00 | 0.00 | 69 | 1019.0 |
| 20260506184012 | 70 | 161 | 2.6 | 2.6 | 0.00 | 0.00 | 0.00 | 68 | 1019.0 |
| 20260506183507 | 68 | 263 | 3.5 | 5.2 | 0.00 | 0.00 | 0.00 | 71 | 1019.0 |
| 20260506183005 | 68 | 289 | 4.3 | 6.1 | 0.00 | 0.00 | 0.00 | 72 | 1019.3 |
| 20260506182501 | 69 | 164 | 3.5 | 4.3 | 0.00 | 0.00 | 0.00 | 70 | 1019.0 |
| 20260506181959 | 68 | 159 | 0.0 | 0.0 | 0.00 | 0.00 | 0.00 | 72 | 1019.0 |
| 20260506181457 | 68 | 272 | 0.0 | 0.0 | 0.00 | 0.00 | 0.00 | 71 | 1019.3 |
| 20260506180948 | 69 | 240 | 5.2 | 6.1 | 0.00 | 0.00 | 0.00 | 71 | 1019.3 |
| 20260506180444 | 68 | 181 | 0.0 | 0.0 | 0.00 | 0.00 | 0.00 | 72 | 1019.3 |
| 20260506175941 | 69 | 77 | 0.0 | 0.0 | 0.00 | 0.00 | 0.00 | 68 | 1019.3 |
| 20260506175438 | 69 | 218 | 0.0 | 0.0 | 0.00 | 0.00 | 0.00 | 71 | 1019.3 |
| 20260506174934 | 69 | 219 | 0.0 | 0.0 | 0.00 | 0.00 | 0.00 | 68 | 1019.3 |
| 20260506174432 | 70 | 181 | 0.0 | 0.0 | 0.00 | 0.00 | 0.00 | 66 | 1019.3 |
| 20260506173929 | 71 | 172 | 0.0 | 0.0 | 0.00 | 0.00 | 0.00 | 64 | 1019.3 |
| 20260506173426 | 69 | 48 | 0.0 | 0.0 | 0.00 | 0.00 | 0.00 | 67 | 1019.3 |
| 20260506172923 | 68 | 25 | 0.0 | 0.0 | 0.00 | 0.00 | 0.00 | 68 | 1019.3 |
| 20260506172420 | 67 | 264 | 0.0 | 0.0 | 0.00 | 0.00 | 0.00 | 70 | 1019.0 |
| 20260506171917 | 66 | 153 | 0.0 | 0.0 | 0.00 | 0.00 | 0.00 | 71 | 1019.3 |
| 20260506171414 | 67 | 111 | 0.0 | 0.0 | 0.00 | 0.00 | 0.00 | 72 | 1019.3 |
| 20260506170912 | 68 | 65 | 0.0 | 0.0 | 0.00 | 0.00 | 0.00 | 69 | 1019.3 |
| 20260506170408 | 69 | 102 | 0.0 | 0.0 | 0.00 | 0.00 | 0.00 | 69 | 1019.3 |
| 20260506165907 | 67 | 115 | 0.0 | 0.0 | 0.00 | 0.00 | 0.00 | 72 | 1019.0 |
| 20260506165405 | 67 | 116 | 0.0 | 0.0 | 0.00 | 0.00 | 0.00 | 71 | 1019.3 |
| 20260506164901 | 67 | 118 | 0.0 | 0.0 | 0.00 | 0.00 | 0.00 | 71 | 1019.3 |
| 20260506164357 | 67 | 146 | 0.0 | 0.0 | 0.00 | 0.00 | 0.00 | 72 | 1019.3 |
| 20260506163855 | 65 | 110 | 0.0 | 0.0 | 0.00 | 0.00 | 0.00 | 75 | 1019.3 |
| 20260506163349 | 65 | 108 | 0.0 | 0.0 | 0.00 | 0.00 | 0.00 | 74 | 1019.3 |
| 20260506162845 | 66 | 107 | 0.0 | 0.0 | 0.00 | 0.00 | 0.00 | 73 | 1019.3 |
| 20260506162343 | 66 | 104 | 0.0 | 0.0 | 0.00 | 0.00 | 0.00 | 73 | 1019.3 |